Creston, British Columbia

2:11 AM MST on July 21, 2017 (GMT -0700)
Creston

Weather History for CWJR - October, 2012

Change the Weather History Date:

Monday, October 22, 2012

  Actual Average (CYXC) Record (CYXC)
Temperature  
Mean Temperature 38 °F -  
Max Temperature 42 °F 47 °F 68 °F (2003)
Min Temperature 33 °F 27 °F 23 °F (2000)
Degree Days  
Heating Degree Days 28    
Moisture  
Dew Point 31 °F    
Average Humidity 75    
Maximum Humidity 95    
Minimum Humidity 52    
Precipitation  
Precipitation 0.02 in - - ()
Sea Level Pressure  
Sea Level Pressure 29.78 in    
Wind  
Wind Speed 4 mph ()    
Max Wind Speed 12 mph    
Max Gust Speed 20 mph    
Averages and records for this station are not official NWS values.
T = Trace of Precipitation, MM = Missing Value Source: Averaged Metar Reports

Daily Weather History Graph

Daily Weather History Graph

Search for Another Location

Airport or City:

Trip Planner

Search our weather history database for the weather conditions in past years. The results will help you decide how hot, cold, wet, or windy it might be!

Date:

Astronomy

Oct. 22, 2012 Rise Set
Actual Time 7:18 AM MST 5:41 PM MST
Civil Twilight 6:45 AM MST 6:13 PM MST
Nautical Twilight 6:09 AM MST 6:50 PM MST
Astronomical Twilight 5:32 AM MST 7:27 PM MST
Moon 2:24 PM MST (10/22) No Moon Set
Length of Visible Light 11h 27m
Length of Day
10h 22m
First Quarter, 57% of the Moon is Illuminated
Oct 22
First Quarter
Oct 29
Full
Nov 6
Last Quarter
Nov 13
New
Nov 20
First Quarter

Hourly Weather History & Observations

Time (MST) Temp. Windchill Dew Point Humidity Pressure Visibility Wind Dir Wind Speed Gust Speed Precip Events Conditions
12:00 AM 33.8 °F - 30.6 °F 88% 29.94 in - NNW 2.3 mph - N/A   Unknown
1:00 AM 35.4 °F 30.5 °F 28.6 °F 76% 29.93 in - NNE 5.8 mph - N/A   Unknown
2:00 AM 35.8 °F 33.0 °F 28.8 °F 76% 29.92 in - NNE 3.5 mph - N/A   Unknown
3:00 AM 36.5 °F - 31.5 °F 82% 29.90 in - NW 2.3 mph - N/A   Unknown
4:00 AM 37.9 °F - 31.6 °F 78% 29.88 in - SSW 2.3 mph - N/A   Unknown
11:00 AM 39 °F - 32 °F 68% 29.87 in - South 2.3 mph - -  
11:00 AM 39.2 °F - 31.8 °F 75% 29.87 in - South 2.3 mph - N/A   Unknown
12:00 PM 41.9 °F 38.2 °F 32.0 °F 68% 29.83 in - NW 5.8 mph - N/A   Unknown
1:00 PM 41.7 °F 35.2 °F 31.1 °F 66% 29.76 in - NW 11.5 mph - N/A   Unknown
2:00 PM 42.1 °F 35.7 °F 29.7 °F 61% 29.73 in - NNW 11.5 mph 17.3 mph N/A   Unknown
3:00 PM 42.6 °F 40.9 °F 30.2 °F 61% 29.71 in - NNE 3.5 mph - N/A   Unknown
5:00 PM 42 °F - 30 °F 52% 29.69 in - NNW 3.5 mph - -  
5:00 PM 42.4 °F 40.7 °F 30.4 °F 62% 29.69 in - NNW 3.5 mph - N/A   Unknown
6:00 PM 41.9 °F 35.4 °F 30.4 °F 64% 29.68 in - ENE 11.5 mph 19.6 mph N/A   Unknown
7:00 PM 38.3 °F 33.2 °F 34.0 °F 84% 29.70 in - ENE 6.9 mph - N/A   Unknown
8:00 PM 36.7 °F 31.2 °F 34.0 °F 90% 29.70 in - East 6.9 mph - 0.02 in   Unknown
9:00 PM 35.8 °F 30.1 °F 34.5 °F 95% 29.71 in - ESE 6.9 mph - N/A   Unknown
10:00 PM 36.3 °F 33.7 °F 33.6 °F 90% 29.71 in - East 3.5 mph - N/A   Unknown
11:00 PM 37 °F - 32 °F 74% 29.72 in - East 8.1 mph - -  
11:00 PM 36.7 °F 30.5 °F 31.6 °F 82% 29.72 in - East 8.1 mph - N/A   Unknown